Regional Weather Roundup
Issued by NWS

Home | Current Version | Previous Version | Text Only | Print | Product List | Glossary On
Versions: 1 2 3 4 5 6 7 8 9 10 11 12 13 14 15 16 17 18 19 20 21 22 23 24 25 26 27 28
000
ASUS45 KSLC 291610
RWRUT

UTAH REGIONAL WEATHER ROUNDUP
NATIONAL WEATHER SERVICE SALT LAKE CITY UT
1000 AM MDT FRI JUL 29 2016

UTZ001>011-023>025-291700-

NORTHERN UTAH

CITY           SKY/WX    TMP DP  RH WIND       PRES   REMARKS
BRIGHAM CITY     N/A     79  38  23 SE3       30.09S
HILL AFB       SUNNY     79  41  25 E12       30.12R
LOGAN          SUNNY     74  44  34 CALM      30.10S
OGDEN          SUNNY     84  39  20 CALM      30.09R
PROVO AIRPORT  MOSUNNY   81  43  26 VRB5      30.11S
SALT LAKE CITY MOSUNNY   85  40  20 SE6       30.06S
VERNAL         SUNNY     78  39  24 SE6       30.17S
WENDOVER       SUNNY     90  37  15 SE3       30.07S
HEBER CITY     MOSUNNY   70  37  30 CALM      30.20S

$$

UTZ012>022-026-027-291700-

SOUTHERN/CENTRAL UTAH

CITY           SKY/WX    TMP DP  RH WIND       PRES   REMARKS
BLANDING       SUNNY     85  38  18 CALM      30.25S
BRYCE CANYON   MOSUNNY   74  40  29 W5        30.35F
CEDAR CITY     MOSUNNY   85  44  23 N5        30.17S
DELTA          MOSUNNY   86  32  14 S3        30.09F
MILFORD        PTSUNNY   85  43  22 S9        30.11S
MOAB/CYNLANDS  SUNNY     90  29  11 S5        30.06S
PRICE          SUNNY     84  34  16 SE5       30.18F
ST GEORGE      MOSUNNY   88  45  22 CALM      29.98S

$$

REGIONAL REPORTS     COLORADO/ARIZONA

CITY           SKY/WX    TMP DP  RH WIND       PRES   REMARKS
CRAIG, CO      SUNNY     70  39  32 VRB3      30.26F
GRAND JUNCTION SUNNY     83  36  18 S10       30.11F
RIFLE          SUNNY     75  37  25 VRB3      30.19F
MONTROSE       SUNNY     79  39  23 VRB5      30.20S
CORTEZ         SUNNY     80  42  25 CALM      30.20S
PAGE, AZ       MOSUNNY   90  41  18 N6        30.05R
GRAND CANYON   MOSUNNY   85  43  22 VRB5      30.27F
KINGMAN        MOSUNNY   97  50  20 SW13      30.01S HX  94
FLAGSTAFF      SUNNY     77  45  32 SW13      30.30R

$$

REGIONAL REPORTS    NEVADA/IDAHO/WYOMING

CITY           SKY/WX    TMP DP  RH WIND       PRES   REMARKS
LAS VEGAS, NV  CLOUDY    99  46  16 CALM      29.85R HX  95
ELY            PTSUNNY   80  39  23 S6        30.24S
ELKO           SUNNY     79  35  20 VRB3      30.15S
POCATELLO, ID  SUNNY     78  44  29 W10       30.11S
BURLEY         SUNNY     75  49  39 SW3       30.07S
EVANSTON, WY   SUNNY     74  32  21 SW9       30.30S
ROCK SPRINGS   SUNNY     70  46  42 SE3       30.26F
KEMMERER         N/A     70  41  35 E3        30.30F

$$




USA.gov is the U.S. government's official web portal to all federal, state and local government web resources and services.